Regional Weather Roundup
Issued by NWS Charleston, SC

Current Version | Previous Version | Graphics & Text | Print | Product List | Glossary On
Versions: 1 2 3 4 5 6 7 8 9 10 11 12 13 14 15 16 17 18 19 20 21 22 23 24 25 26 27 28 29 30 31 32 33 34 35 36 37 38 39 40 41 42 43 44 45 46 47 48 49 50
000
ASUS42 KCHS 232325
RWRCHS

REGIONAL WEATHER ROUNDUP
NATIONAL WEATHER SERVICE CHARLESTON SC
600 PM EST SUN NOV 23 2014

NOTE: "FAIR" INDICATES FEW OR NO CLOUDS BELOW 12,000 FEET WITH NO
SIGNIFICANT WEATHER AND/OR OBSTRUCTIONS TO VISIBILITY.

NOT ALL STATIONS ARE QUALITY CONTROLLED BY THE NATIONAL
WEATHER SERVICE. USE DATA WITH CAUTION...ESPECIALLY
DEWPOINT OBSERVATIONS.

SCZ027-030-031-034>040-042>050-240000-
...SOUTHEAST SOUTH CAROLINA...

CITY           SKY/WX    TMP DP  RH WIND       PRES   REMARKS
N CHARLESTON   CLOUDY    66  65  96 SE13      29.86F
WATERFRONT PRK   N/A     61 N/A N/A SE12        N/A
MOUNT PLEASANT CLOUDY    68  68 100 SE6       29.87F
JOHNS ISLAND   CLOUDY    66  66 100 CALM      29.86F FOG
PINOPOLIS        N/A     66  64  94 SE9G20    29.79F
MONCKS CORNER  CLOUDY    68  68 100 S6        29.86S
SUMMERVILLE    LGT RAIN  66  66 100 E5        29.86R
BEAUFORT MCAS  HVY RAIN  69  67  93 S6        29.84S FOG
BEAUFORT ARPT  TSTM      70  70 100 S7        29.84R
HILTON HEAD IS CLOUDY    68  68 100 S5        29.85S FOG
WALTERBORO     TSTM      68 N/A N/A SE6       29.84F
ALLENDALE      RAIN      68  66  94 SE10      29.81F

...SOUTHERN MIDLANDS AND PEE DEE...

CITY           SKY/WX    TMP DP  RH WIND       PRES   REMARKS
GEORGETOWN     NOT AVBL
KINGSTREE      NOT AVBL
ORANGEBURG     RAIN      67  64  90 SE14      29.82F FOG
BARNWELL       CLOUDY    66  66 100 SE10      29.82S
AIKEN          CLOUDY    64  64 100 SE10      29.82F
MANNING        NOT AVBL
COLUMBIA       RAIN      66  64  93 E6        29.81F FOG
SUMTER         LGT RAIN  64  64 100 SE16G25   29.82F
FLORENCE       LGT RAIN  65  63  93 SE17      29.88F FOG
MYRTLE BEACH   LGT RAIN  64  61  88 SE17      29.91F
N MYRTLE BEACH CLOUDY    65  62  90 SE8G17    29.91F

$$

GAZ063-065-086>088-099>101-113>116-118-119-134>141-150-240000-
...SOUTHEAST GEORGIA...

CITY           SKY/WX    TMP DP  RH WIND       PRES   REMARKS
SAVANNAH ARPT  TSTM      72  68  88 S13       29.85R VSB 1/2
HUNTER AAF     RAIN      70  70 100 S5        29.83R FOG
FORT STEWART   CLOUDY    72  70  94 SE6       29.82S
STATESBORO     NOT AVBL
SYLVANIA       TSTM      69  68  98 S7        29.83S
CLAXTON        MOCLDY   N/A N/A N/A CALM      29.82S THUNDER

...CSRA...CENTRAL AND FAR SOUTHEAST GEORGIA...

CITY           SKY/WX    TMP DP  RH WIND       PRES   REMARKS
THOMSON        CLOUDY    66  66 100 S5        29.81R
AUGUSTA-BUSH   CLOUDY    66  65  96 S9        29.79S
AUGUSTA-DANIEL CLOUDY    66  65  96 SE10      29.78F
SWAINSBORO     TSTM     N/A N/A N/A S7        29.81R
VIDALIA        TSTM      72  70  94 W7        29.82R
HAZLEHURST     MOCLDY    73  73 100 SW7       29.81R
ALMA           LGT RAIN  72  69  90 S14G25    29.82R FOG
WAYCROSS       CLOUDY    75  74  97 S8        29.80F
JESUP          MOCLDY    73  72  94 CALM      29.83R
BAXLEY         TSTM      73  72  94 SW7G22    29.82R
BRUNSWICK      CLOUDY    70  66  88 S6        29.86R
SAINT SIMONS   CLOUDY    68  68 100 S10G18    29.84S

$$

SCZ027-028-034-036>038-045-046-048>050-GAZ119-141-240000-
...LAKE AND SUPPLEMENTAL COASTAL OBSERVATIONS...

STATION/POSITION TIME  TEMP    WIND        PRES    WAVE   SWELL
                       AIR SEA DIR/SP/G            HT/PER HT/PER/DIR
                 (UTC) (F)     (DEG/KT/KT) (MB)    (FT/S) (FT/S/D)
UPR LAKE MARION  NOT AVBL
WINYAH BAY       2300   65     130/ 14     1012.0S
LAKE MURRAY      2200   63     140/  7/ 12 1009.1F
ACE BASIN NERRS  2300   67     140/  2     1010.0S
FORT PULASKI     2300   68     160/  7/ 12 1010.4F
SAPELO ISLAND    NOT AVBL

$$

ANZ835-935-AMZ111-154-330-350-352-354-370-450-454-472-240000-
...C-MAN AND BUOY OBSERVATIONS...

STATION/POSITION TIME  TEMP    WIND        PRES    WAVE   SWELL
                       AIR SEA DIR/SP/G            HT/PER HT/PER/DIR
                 (UTC) (F)     (DEG/KT/KT) (MB)    (FT/S) (FT/S/D)
FOLLY BEACH CMAN 2300   62     130/ 10/ 11 1011.7F
BUOY 41004       2300   74 75  110/ 16/ 19 1011.3F  13/ 9  11/ 9
BUOY 41008       2300   69 64  160/ 17/ 19 1010.2F   7/ 8   3/ 20/14
CAPERS NEARSHORE 2200   65     120/ 21/ 29   N/A
FRIPP NEARSHORE  NOT AVBL


STATION/POSITION TIME  TEMP    WIND        PRES    WAVE   SWELL
                       AIR SEA DIR/SP/G            HT/PER HT/PER/DIR
                 (UTC) (F)     (DEG/KT/KT) (MB)    (FT/S) (FT/S/D)
5E ST. MARYS GA  2300      60                N/A     6/ 9   2/120/11
FRYING PAN BUOY  2300   69 67  130/ 25/ 31 1013.4F  12/ 8
BUOY 41025       2300   70     140/ 25/ 29 1017.1F   6/ 6   2/100/ 9
CAPE LOOKOUT NC  2300   66     140/ 23/ 26 1015.7F
BUOY 41002       2240   72 73  130/ 23/ 29 1019.2F   7/ 7   3/ 80/ 9
BUOY 41010       2300   79 78  160/ 19/ 23 1014.3R  10/10   7/130/10
ST AUGUSTINE FL  2300   67     200/  8/  8 1011.9S


$$


USA.gov is the U.S. government's official web portal to all federal, state and local government web resources and services.